This is the latest recevied weather packets stored in our database for station/object KB3AWQ. If no packets are shown the sender has not sent any weather packets the latest 10 day(s).
| Time | Temp. | Humidity | Pressure | Rain* | Wind** | Luminosity | Snow |
|---|---|---|---|---|---|---|---|
| 1787771067 | 27.22° C | 62% | 1017.6 hPa | 0 mm | - | 690 W/m² | - |
| 1787770766 | 27.22° C | 64% | 1017.8 hPa | 0 mm | - | 660 W/m² | - |
| 1787770466 | 27.22° C | 66% | 1017.7 hPa | 0 mm | - | 718 W/m² | - |
| 1787770166 | 27.22° C | 65% | 1017.9 hPa | 0 mm | - | 814 W/m² | - |
| 1787769867 | 27.22° C | 64% | 1017.9 hPa | 0 mm | - | 814 W/m² | - |
| 1787769566 | 27.22° C | 65% | 1018 hPa | 0 mm | - | 863 W/m² | - |
| 1787769268 | 26.67° C | 65% | 1018.1 hPa | 0 mm | - | 824 W/m² | - |
| 1787768966 | 26.67° C | 67% | 1018.1 hPa | 0 mm | - | 827 W/m² | - |
| 1787768666 | 26.67° C | 67% | 1018.2 hPa | 0 mm | - | 820 W/m² | - |
| 1787768366 | 26.67° C | 66% | 1018.3 hPa | 0 mm | - | 809 W/m² | - |
| 1787768068 | 26.11° C | 66% | 1018.4 hPa | 0 mm | - | 866 W/m² | - |
| 1787767766 | 25.56° C | 68% | 1018.4 hPa | 0 mm | - | 864 W/m² | - |
| 1787767467 | 25.56° C | 68% | 1018.5 hPa | 0 mm | - | 819 W/m² | - |
| 1787767167 | 25.56° C | 68% | 1018.5 hPa | 0 mm | - | 797 W/m² | - |
| 1787766868 | 25.56° C | 68% | 1018.4 hPa | 0 mm | - | 854 W/m² | - |
| 1787766566 | 25.56° C | 71% | 1018.5 hPa | 0 mm | - | 891 W/m² | - |
| 1787766267 | 25.56° C | 72% | 1018.5 hPa | 0 mm | - | 700 W/m² | - |
| 1787765966 | 25° C | 70% | 1018.5 hPa | 0 mm | - | 875 W/m² | - |
| 1787765667 | 25° C | 70% | 1018.6 hPa | 0 mm | - | 883 W/m² | - |
| 1787765366 | 25.56° C | 71% | 1018.6 hPa | 0 mm | - | 881 W/m² | - |
| 1787765066 | 25° C | 68% | 1018.6 hPa | 0 mm | - | 881 W/m² | - |
| 1787764766 | 25° C | 70% | 1018.7 hPa | 0 mm | - | 835 W/m² | - |
| 1787764466 | 24.44° C | 72% | 1018.7 hPa | 0 mm | - | 910 W/m² | - |
| 1787764167 | 25° C | 72% | 1018.8 hPa | 0 mm | - | 899 W/m² | - |
| 1787763867 | 25° C | 73% | 1018.8 hPa | 0 mm | - | 859 W/m² | - |
* Rain latest hour (hover to see other rain measurements)
** Current wind speed in m/s (hover to see current wind gust speed)